Location: Unspecified
(32.6180°N, 83.6190°W)
Time: 22:34:28
(UTC+00:00)

Daily predictions for brighter satellites

Satellite Brightness Start Highest point End
(mag) Time Altitude Azimuth Time Altitude Azimuth Time Altitude Azimuth
Longmarch 3A Rocket 3.3 23:19:16 10° SW 23:22:07 38° SSE 23:31:16 10° E
Delta 2 Rocket 3.6 23:29:28 10° WSW 23:34:00 82° SSE 23:38:48 10° ENE
OAO 1 Rocket 4.5 23:28:51 10° WNW 23:34:09 84° NNE 23:39:26 10° ESE
Atlas Centaur 2 2.8 23:27:46 10° WSW 23:35:28 72° S 23:41:44 10° E
Cosmos 1470 2.7 23:37:03 10° S 23:40:33 50° E 23:44:03 10° NNE
ATLAS 2AS CENTAUR R/B 4.2 23:38:47 10° N 23:42:36 15° NE 23:46:20 10° ENE
NOAA 6 4.4 23:39:54 10° SE 23:44:43 42° ENE 23:49:33 10° N
Cosmos 1408 3.1 23:44:09 10° NE 23:45:52 17° E 23:47:34 10° SE
Okean 1-7 3.7 23:47:29 10° NNE 23:51:13 30° E 23:54:53 10° SE
Lacrosse 5 3.9 23:47:04 10° W 23:51:17 25° NW 23:55:30 10° NNE
SKYMED 2 4.1 23:47:51 10° N 23:52:09 64° WNW 23:56:26 10° SSW
